"Timestamp","TZ","WindDir_Mean (deg)","WindSpd_Mean (km/h)","WindSpd_Min (km/h)","WindSpd_Max (km/h)","Temp_Mean (deg)","RH_Mean (%)","MSLP_Mean (hPa)","Rain_Acc (mm)","Rain_Intensity (mm/h)","Hail_Acc (hits/cm2)","Hail_Intensity (hits/cm2hr)","Solar_Mean (W/m2)"
2022/07/01 00:00:00.009,n,197,4.32,3.6,7.56,16.8,73.2,1023.32,0,0,0,0,0.027008
2022/07/01 00:01:00.000,n,223,2.52,1.8,3.24,16.700002,73.3,1023.32,0,0,0,0,0.027008
2022/07/01 00:02:00.000,n,172,2.88,2.52,3.24,16.700002,73.3,1023.32,0,0,0,0,0.025253
2022/07/01 00:03:00.001,n,138,3.96,3.24,4.32,16.700002,73.3,1023.22,0,0,0,0,0.028725
2022/07/01 00:04:00.000,n,178,3.96,2.88,7.92,16.700002,73.4,1023.22,0,0,0,0,0.025253
2022/07/01 00:05:00.000,n,154,4.32,3.6,4.68,16.700002,73.4,1023.22,0,0,0,0,0.026131
2022/07/01 00:06:00.009,n,155,2.52,2.52,3.6,16.700002,73.5,1023.32,0,0,0,0,0.027847
2022/07/01 00:07:00.006,n,180,3.6,3.24,7.92,16.700002,73.5,1023.32,0,0,0,0,0.024414
2022/07/01 00:08:00.003,n,164,2.16,1.8,3.24,16.700002,73.6,1023.32,0,0,0,0,0.027847
2022/07/01 00:09:00.001,n,171,2.88,2.16,3.6,16.700002,73.7,1023.32,0,0,0,0,0.027008
2022/07/01 00:10:00.000,n,198,1.08,0.72,1.44,16.700002,73.7,1023.32,0,0,0,0,0.027008
2022/07/01 00:11:00.000,n,161,2.16,1.8,3.24,16.700002,73.7,1023.32,0,0,0,0,0.025253
2022/07/01 00:12:00.000,n,174,2.88,2.52,3.6,16.700002,73.7,1023.32,0,0,0,0,0.027847
2022/07/01 00:13:00.006,n,148,2.88,2.88,3.6,16.700002,73.7,1023.22,0,0,0,0,0.024414
2022/07/01 00:14:00.004,n,233,1.08,0.36,1.8,16.700002,73.7,1023.22,0,0,0,0,0.027847
2022/07/01 00:15:00.001,n,153,6.48,5.04,11.16,16.700002,73.6,1023.12,0,0,0,0,0.023499
2022/07/01 00:16:00.000,n,156,5.4,4.32,10.8,16.700002,73.5,1023.12,0,0,0,0,0.024414
2022/07/01 00:17:00.012,n,140,4.32,3.96,5.04,16.700002,73.5,1023.22,0,0,0,0,0.024414
2022/07/01 00:18:00.009,n,163,2.88,2.88,3.6,16.700002,73.6,1023.22,0,0,0,0,0.020065
2022/07/01 00:19:00.000,n,155,4.68,4.32,5.04,16.700002,73.7,1023.22,0,0,0,0,0.023499
2022/07/01 00:20:00.003,n,163,3.96,2.88,4.32,16.700002,73.6,1023.12,0,0,0,0,0.028725
2022/07/01 00:21:00.000,n,146,3.96,3.6,4.32,16.700002,73.6,1023.02,0,0,0,0,0.022659
2022/07/01 00:22:00.000,n,56,2.16,1.8,2.52,16.700002,73.9,1023.02,0,0,0,0,0.020905
2022/07/01 00:23:00.000,n,89,2.88,1.44,3.96,16.700002,73.8,1022.92,0,0,0,0,0.023499
2022/07/01 00:24:00.007,n,203,1.44,0.72,2.16,16.700002,73.7,1022.92,0,0,0,0,0.023499
2022/07/01 00:25:00.005,n,118,2.52,1.8,2.88,16.700002,73.8,1023.02,0,0,0,0,0.024414
2022/07/01 00:26:00.001,n,147,2.16,1.44,2.52,16.700002,73.8,1023.12,0,0,0,0,0.023499
2022/07/01 00:27:00.015,n,172,1.44,1.08,1.8,16.700002,73.9,1023.12,0,0,0,0,0.033989
2022/07/01 00:28:00.000,n,215,2.52,1.44,3.24,16.700002,73.9,1023.12,0,0,0,0,0.034828
2022/07/01 00:29:00.000,n,158,2.88,2.52,3.24,16.700002,73.9,1023.02,0,0,0,0,0.033073
2022/07/01 00:30:00.003,n,149,2.52,2.16,2.88,16.700002,74,1022.92,0,0,0,0,0.033073
2022/07/01 00:31:00.001,n,116,2.52,2.52,2.88,16.6,74,1022.82,0,0,0,0,0.038338
2022/07/01 00:32:00.000,n,115,1.8,1.08,2.16,16.700002,74.1,1022.82,0,0,0,0,0.034828
2022/07/01 00:33:00.000,n,159,3.96,3.24,4.32,16.6,74.1,1022.82,0,0,0,0,0.031357
2022/07/01 00:34:00.008,n,209,1.08,0.72,1.44,16.6,74.2,1022.82,0,0,0,0,0.031357
2022/07/01 00:35:00.005,n,206,0.36,0.36,0.72,16.6,74.2,1022.92,0,0,0,0,0.033989
2022/07/01 00:36:00.002,n,200,0.36,0.36,0.36,16.6,74.3,1022.92,0,0,0,0,0.034828
2022/07/01 00:37:00.000,n,262,2.88,2.88,3.6,16.6,74.4,1023.02,0,0,0,0,0.032196
2022/07/01 00:38:00.000,n,209,2.52,2.16,2.88,16.6,74.3,1023.02,0,0,0,0,0.034828
2022/07/01 00:39:00.000,n,262,2.52,2.16,2.52,16.6,74.3,1023.02,0,0,0,0,0.034828
2022/07/01 00:40:00.000,n,178,2.16,1.44,2.88,16.6,74.4,1023.02,0,0,0,0,0.034828
2022/07/01 00:41:00.004,n,157,2.16,2.16,2.16,16.6,74.5,1023.02,0,0,0,0,0.032196
2022/07/01 00:42:00.001,n,188,2.88,2.52,3.24,16.6,74.4,1023.02,0,0,0,0,0.032196
2022/07/01 00:43:00.000,n,210,3.96,3.6,4.68,16.6,74.4,1023.12,0,0,0,0,0.035706
2022/07/01 00:44:00.011,n,247,3.6,3.24,4.32,16.6,74.4,1023.12,0,0,0,0,0.034828
2022/07/01 00:45:00.009,n,180,2.52,1.08,3.24,16.6,74.6,1023.22,0,0,0,0,0.035706
2022/07/01 00:46:00.000,n,250,2.52,2.52,3.24,16.6,74.6,1023.22,0,0,0,0,0.034828
2022/07/01 00:47:00.002,n,231,0.72,0.36,1.08,16.6,75,1023.32,0,0,0,0,0.032196
2022/07/01 00:48:00.000,n,248,2.88,2.88,2.88,16.700002,75,1023.32,0,0,0,0,0.034828
2022/07/01 00:49:00.000,n,256,2.88,2.52,3.6,16.700002,74.5,1023.32,0,0,0,0,0.034828
2022/07/01 00:50:00.000,n,270,5.76,4.32,9.36,16.6,74.5,1023.32,0,0,0,0,0.035706
2022/07/01 00:51:00.007,n,219,1.8,1.44,2.16,16.6,74.5,1023.42,0,0,0,0,0.033073
2022/07/01 00:52:00.004,n,215,3.6,2.88,3.96,16.6,74.6,1023.42,0,0,0,0,0.033989
2022/07/01 00:53:00.001,n,265,2.88,2.52,3.6,16.6,74.6,1023.32,0,0,0,0,0.038338
2022/07/01 00:54:00.015,n,264,2.52,2.16,2.88,16.6,74.6,1023.32,0,0,0,0,0.033989
2022/07/01 00:55:00.000,n,280,1.44,1.44,1.8,16.6,74.7,1023.22,0,0,0,0,0.033989
2022/07/01 00:56:00.000,n,171,1.44,1.44,1.44,16.6,74.8,1023.22,0,0,0,0,0.033989
2022/07/01 00:57:00.000,n,250,2.16,2.16,2.16,16.6,74.8,1023.22,0,0,0,0,0.037422
2022/07/01 00:58:00.005,n,194,1.44,1.08,1.8,16.6,74.8,1023.32,0,0,0,0,0.033073
2022/07/01 00:59:00.003,n,232,4.68,3.24,8.28,16.6,74.8,1023.32,0,0,0,0,0.031357
2022/07/01 01:00:00.000,n,4,0.72,0.36,0.72,16.5,74.8,1023.42,0,0,0,0,0.033073
2022/07/01 01:01:00.000,n,203,2.16,2.16,2.52,16.5,74.9,1023.42,0,0,0,0,0.033073
2022/07/01 01:02:00.011,n,194,4.32,3.6,5.4,16.5,75,1023.42,0,0,0,0,0.034828
2022/07/01 01:03:00.009,n,39,1.08,0.72,1.8,16.5,75.1,1023.42,0,0,0,0,0.035706
2022/07/01 01:04:00.000,n,254,2.16,1.8,2.52,16.5,75.2,1023.42,0,0,0,0,0.037422
2022/07/01 01:05:00.002,n,249,2.16,2.16,2.88,16.5,75.5,1023.42,0,0,0,0,0.034828
2022/07/01 01:06:00.000,n,236,1.8,1.8,2.16,16.5,75.6,1023.32,0,0,0,0,0.033073
2022/07/01 01:07:00.000,n,210,3.6,2.52,3.96,16.5,75.2,1023.22,0,0,0,0,0.035706
2022/07/01 01:08:00.000,n,213,2.88,2.52,3.6,16.5,75.2,1023.12,0,0,0,0,0.033073
2022/07/01 01:09:00.008,n,187,3.24,2.16,3.96,16.5,75.2,1023.02,0,0,0,0,0.034828
2022/07/01 01:10:00.005,n,134,2.16,0.72,2.88,16.5,75.1,1023.02,0,0,0,0,0.034828
2022/07/01 01:11:00.005,n,150,4.32,2.88,5.4,16.4,75.1,1023.02,0,0,0,0,0.032196
2022/07/01 01:12:00.016,n,131,1.8,1.8,2.16,16.4,75.2,1023.02,0,0,0,0,0.033073
2022/07/01 01:13:00.000,n,165,4.68,3.96,8.64,16.4,75.3,1023.02,0,0,0,0,0.035706
2022/07/01 01:14:00.000,n,149,4.32,1.44,5.4,16.4,75.4,1023.02,0,0,0,0,0.031357
2022/07/01 01:15:00.000,n,196,2.52,2.16,3.24,16.4,75.5,1023.02,0,0,0,0,0.034828
2022/07/01 01:16:00.005,n,274,1.8,1.08,1.8,16.4,75.5,1023.02,0,0,0,0,0.033073
2022/07/01 01:17:00.003,n,214,4.32,3.6,4.68,16.4,75.5,1023.02,0,0,0,0,0.033073
2022/07/01 01:18:00.000,n,211,1.8,1.44,1.8,16.4,75.5,1023.02,0,0,0,0,0.030479
2022/07/01 01:19:00.000,n,237,1.8,1.44,1.8,16.4,75.5,1023.02,0,0,0,0,0.033073
2022/07/01 01:20:00.010,n,271,3.6,3.24,3.96,16.4,75.7,1023.12,0,0,0,0,0.034828
2022/07/01 01:21:00.008,n,227,0.72,0.72,1.08,16.4,75.6,1023.12,0,0,0,0,0.031357
2022/07/01 01:22:00.000,n,200,0.72,0.72,1.08,16.4,76,1023.02,0,0,0,0,0.034828
2022/07/01 01:23:00.002,n,31,1.08,0.72,1.44,16.5,76,1023.02,0,0,0,0,0.027847
2022/07/01 01:24:00.000,n,23,1.8,1.44,2.16,16.5,75.9,1022.92,0,0,0,0,0.030479
2022/07/01 01:25:00.000,n,48,0.72,0.36,1.08,16.5,75.7,1022.92,0,0,0,0,0.033989
2022/07/01 01:26:00.000,n,14,1.44,0.72,2.16,16.5,75.6,1022.92,0,0,0,0,0.032196
2022/07/01 01:27:00.007,n,226,2.52,1.8,2.88,16.5,75.5,1022.82,0,0,0,0,0.032196
2022/07/01 01:28:00.005,n,217,1.44,1.08,1.8,16.4,75.5,1022.82,0,0,0,0,0.035706
2022/07/01 01:29:00.002,n,197,3.6,3.24,3.6,16.4,75.6,1022.72,0,0,0,0,0.032196
2022/07/01 01:30:00.016,n,203,2.16,1.08,3.6,16.4,75.6,1022.72,0,0,0,0,0.028763
2022/07/01 01:31:00.000,n,133,1.44,1.44,1.44,16.4,75.7,1022.72,0,0,0,0,0.034828
2022/07/01 01:32:00.000,n,211,1.44,0.72,1.8,16.4,75.7,1022.82,0,0,0,0,0.030479
2022/07/01 01:33:00.000,n,251,2.88,1.44,3.6,16.4,75.8,1022.82,0,0,0,0,0.030479
2022/07/01 01:34:00.005,n,246,3.24,3.24,3.96,16.4,75.7,1022.92,0,0,0,0,0.031357
2022/07/01 01:35:00.002,n,266,3.96,3.96,3.96,16.4,75.6,1022.92,0,0,0,0,0.031357
2022/07/01 01:36:00.000,n,263,4.68,4.32,4.68,16.4,75.6,1022.92,0,0,0,0,0.032196
2022/07/01 01:37:00.000,n,257,3.24,2.88,3.6,16.3,75.7,1022.82,0,0,0,0,0.032196
2022/07/01 01:38:00.009,n,258,4.32,3.96,4.32,16.3,75.8,1022.82,0,0,0,0,0.031357
2022/07/01 01:39:00.007,n,269,5.4,3.96,10.08,16.3,75.9,1022.82,0,0,0,0,0.034828
2022/07/01 01:40:00.000,n,253,3.96,3.6,4.32,16.3,76,1022.82,0,0,0,0,0.030479
2022/07/01 01:41:00.002,n,274,3.6,3.24,4.32,16.3,76.2,1022.82,0,0,0,0,0.029602
2022/07/01 01:42:00.000,n,266,4.32,4.32,5.04,16.3,76.2,1022.82,0,0,0,0,0.029602
2022/07/01 01:43:00.000,n,270,4.68,4.32,5.04,16.200002,76.2,1022.82,0,0,0,0,0.033073
2022/07/01 01:44:00.000,n,269,5.04,5.04,5.4,16.200002,76.2,1022.72,0,0,0,0,0.028763
2022/07/01 01:45:00.008,n,264,4.32,3.96,5.04,16.200002,76.3,1022.72,0,0,0,0,0.032196
2022/07/01 01:46:00.005,n,258,2.88,2.88,3.24,16.200002,76.6,1022.72,0,0,0,0,0.032196
2022/07/01 01:47:00.002,n,261,3.6,2.88,3.96,16.200002,76.6,1022.62,0,0,0,0,0.032196
2022/07/01 01:48:00.016,n,293,2.52,1.44,2.88,16.200002,76.8,1022.62,0,0,0,0,0.027847
2022/07/01 01:49:00.000,n,238,2.52,1.8,3.24,16.200002,76.8,1022.62,0,0,0,0,0.029602
2022/07/01 01:50:00.000,n,226,2.16,1.44,2.52,16.200002,76.8,1022.52,0,0,0,0,0.027847
2022/07/01 01:51:00.000,n,258,2.88,2.88,3.24,16.1,76.8,1022.52,0,0,0,0,0.028763
2022/07/01 01:52:00.005,n,270,1.44,1.08,1.44,16.1,76.9,1022.52,0,0,0,0,0.032196
2022/07/01 01:53:00.003,n,134,1.44,1.08,2.16,16.1,77,1022.52,0,0,0,0,0.030479
2022/07/01 01:54:00.000,n,175,2.16,1.8,2.88,16.1,77.1,1022.52,0,0,0,0,0.030479
2022/07/01 01:55:00.000,n,190,1.08,0.72,1.08,16.1,77.2,1022.42,0,0,0,0,0.030479
2022/07/01 01:56:00.011,n,42,0.72,0.72,1.08,16.1,77.2,1022.42,0,0,0,0,0.028763
2022/07/01 01:57:00.008,n,45,1.8,1.08,2.52,16.1,77.5,1022.32,0,0,0,0,0.031357
2022/07/01 01:58:00.000,n,18,1.44,0.36,2.52,16.200002,77.4,1022.22,0,0,0,0,0.027847
2022/07/01 01:59:00.001,n,355,1.08,0.36,1.44,16.200002,77.4,1022.22,0,0,0,0,0.030479
2022/07/01 02:00:00.000,n,4,1.44,1.08,2.16,16.200002,77.2,1022.12,0,0,0,0,0.02697
2022/07/01 02:01:00.000,n,332,1.08,0.72,1.08,16.200002,77.2,1022.12,0,0,0,0,0.028763
2022/07/01 02:02:00.000,n,190,1.08,0,1.8,16.200002,77.2,1022.12,0,0,0,0,0.028763
2022/07/01 02:03:00.008,n,239,2.16,1.8,2.52,16.200002,77.1,1022.22,0,0,0,0,0.030479
2022/07/01 02:04:00.005,n,234,1.44,1.44,1.8,16.200002,77.1,1022.22,0,0,0,0,0.027847
2022/07/01 02:05:00.003,n,246,1.8,1.44,2.16,16.200002,77.1,1022.22,0,0,0,0,0.027847
2022/07/01 02:06:00.016,n,236,2.16,1.8,2.52,16.200002,77.1,1022.22,0,0,0,0,0.029602
2022/07/01 02:07:00.000,n,221,1.44,1.44,1.8,16.200002,77.2,1022.22,0,0,0,0,0.029602
2022/07/01 02:08:00.000,n,149,1.08,0.36,1.08,16.1,77.3,1022.22,0,0,0,0,0.026131
2022/07/01 02:09:00.000,n,148,0.72,0.36,0.72,16.1,77.3,1022.12,0,0,0,0,0.02697
2022/07/01 02:10:00.005,n,125,1.08,0.72,1.08,16.1,77.3,1022.12,0,0,0,0,0.02697
2022/07/01 02:11:00.002,n,40,2.88,2.88,3.24,16.1,77.5,1022.12,0,0,0,0,0.028763
2022/07/01 02:12:00.000,n,114,2.16,1.8,2.52,16.200002,77.6,1022.02,0,0,0,0,0.029602
2022/07/01 02:13:00.013,n,111,2.16,1.44,2.52,16.200002,77.4,1022.02,0,0,0,0,0.025253
2022/07/01 02:14:00.010,n,167,1.08,1.08,1.8,16.200002,77.4,1022.02,0,0,0,0,0.027847
2022/07/01 02:15:00.007,n,213,2.88,2.52,2.88,16.1,77.4,1022.02,0,0,0,0,0.032196
2022/07/01 02:16:00.000,n,213,2.88,2.52,3.24,16.1,77.4,1022.02,0,0,0,0,0.031357
2022/07/01 02:17:00.000,n,210,1.44,1.44,2.16,16.1,77.4,1022.12,0,0,0,0,0.028763
2022/07/01 02:18:00.000,n,182,1.8,1.44,2.16,16.1,77.5,1022.12,0,0,0,0,0.030479
2022/07/01 02:19:00.000,n,191,2.16,1.8,2.88,16.1,77.5,1022.12,0,0,0,0,0.026131
2022/07/01 02:20:00.000,n,243,0.72,0.72,1.44,16.1,77.5,1022.12,0,0,0,0,0.032196
2022/07/01 02:21:00.006,n,167,1.8,1.08,1.8,16.1,77.6,1022.22,0,0,0,0,0.027847
2022/07/01 02:22:00.003,n,171,1.8,1.8,2.16,16.1,77.6,1022.22,0,0,0,0,0.027847
2022/07/01 02:23:00.000,n,276,5.4,5.04,5.76,16.1,77.5,1022.32,0,0,0,0,0.02697
2022/07/01 02:24:00.001,n,274,3.24,2.88,3.96,16.1,77.5,1022.32,0,0,0,0,0.028763
2022/07/01 02:25:00.000,n,276,3.6,3.6,4.32,16.1,78.1,1022.42,0,0,0,0,0.02697
2022/07/01 02:26:00.000,n,201,1.44,1.08,2.16,16.1,77.9,1022.42,0,0,0,0,0.028763
2022/07/01 02:27:00.005,n,222,4.68,3.6,5.4,16.1,77.7,1022.42,0,0,0,0,0.02697
2022/07/01 02:28:00.001,n,247,3.96,1.8,4.32,16.1,77.6,1022.42,0,0,0,0,0.024414
2022/07/01 02:29:00.000,n,228,2.52,1.8,3.6,16.1,77.5,1022.32,0,0,0,0,0.026131
2022/07/01 02:30:00.000,n,278,1.08,0.36,1.8,16.1,77.6,1022.32,0,0,0,0,0.027847
2022/07/01 02:31:00.010,n,255,1.08,0.72,1.44,16.1,77.7,1022.32,0,0,0,0,0.028763
2022/07/01 02:32:00.007,n,245,2.88,1.8,3.24,16.1,77.8,1022.32,0,0,0,0,0.027847
2022/07/01 02:33:00.004,n,287,2.16,1.08,3.24,16.1,77.9,1022.32,0,0,0,0,0.025253
2022/07/01 02:34:00.002,n,276,3.24,3.24,3.24,16.1,77.9,1022.42,0,0,0,0,0.02697
2022/07/01 02:35:00.000,n,258,2.88,2.88,3.6,16.1,77.8,1022.42,0,0,0,0,0.026131
2022/07/01 02:36:00.000,n,279,2.16,1.8,2.88,16.1,77.8,1022.42,0,0,0,0,0.028763
2022/07/01 02:37:00.000,n,254,1.8,1.44,2.16,16.1,77.7,1022.42,0,0,0,0,0.028763
2022/07/01 02:38:00.008,n,277,2.52,2.16,2.88,16.1,77.9,1022.42,0,0,0,0,0.026131
2022/07/01 02:39:00.005,n,206,1.44,1.08,1.44,16.1,78.2,1022.32,0,0,0,0,0.027847
2022/07/01 02:40:00.002,n,229,1.8,1.44,2.16,16.1,77.9,1022.32,0,0,0,0,0.02697
2022/07/01 02:41:00.000,n,198,1.8,1.08,2.16,16.1,77.8,1022.32,0,0,0,0,0.025253
2022/07/01 02:42:00.012,n,195,0.36,0,1.44,16.1,77.9,1022.32,0,0,0,0,0.026131
2022/07/01 02:43:00.000,n,240,2.16,1.8,2.16,16.1,78,1022.22,0,0,0,0,0.026131
2022/07/01 02:44:00.000,n,231,0.36,0.36,0.72,16.1,77.9,1022.22,0,0,0,0,0.027847
2022/07/01 02:45:00.003,n,246,1.44,1.08,2.16,16.1,77.9,1022.22,0,0,0,0,0.025253
2022/07/01 02:46:00.000,n,202,0.36,0,1.08,16.1,78.2,1022.32,0,0,0,0,0.025253
2022/07/01 02:47:00.000,n,244,1.8,1.8,2.16,16.200002,78.3,1022.32,0,0,0,0,0.023499
2022/07/01 02:48:00.000,n,265,2.88,2.88,2.88,16.200002,78.3,1022.32,0,0,0,0,0.023499
2022/07/01 02:49:00.009,n,271,3.96,3.6,4.32,16.200002,78,1022.32,0,0,0,0,0.022621
2022/07/01 02:50:00.006,n,244,2.16,2.16,2.52,16.1,77.8,1022.32,0,0,0,0,0.026131
2022/07/01 02:51:00.002,n,243,1.8,1.44,2.52,16.1,77.8,1022.32,0,0,0,0,0.027847
2022/07/01 02:52:00.000,n,250,4.32,3.96,4.68,16.1,77.7,1022.42,0,0,0,0,0.028763
2022/07/01 02:53:00.000,n,263,3.96,3.6,4.32,16.1,77.7,1022.42,0,0,0,0,0.02697
2022/07/01 02:54:00.000,n,252,3.24,2.88,3.6,16.1,77.7,1022.42,0,0,0,0,0.026131
2022/07/01 02:55:00.006,n,248,2.88,2.88,3.6,16.1,77.7,1022.42,0,0,0,0,0.024414
2022/07/01 02:56:00.004,n,254,2.52,2.16,2.88,16.1,77.7,1022.32,0,0,0,0,0.027847
2022/07/01 02:57:00.001,n,216,2.52,2.16,2.88,16.1,77.8,1022.32,0,0,0,0,0.02697
2022/07/01 02:58:00.000,n,170,0.72,0.36,1.08,16.1,77.9,1022.32,0,0,0,0,0.026131
2022/07/01 02:59:00.000,n,219,1.8,1.08,2.88,16.200002,78,1022.32,0,0,0,0,0.02697
2022/07/01 03:00:00.011,n,145,1.44,0.72,1.8,16.200002,77.9,1022.32,0,0,0,0,0.023499
2022/07/01 03:01:00.000,n,207,3.6,3.24,3.6,16.200002,77.7,1022.32,0,0,0,0,0.028763
2022/07/01 03:02:00.000,n,213,4.32,3.6,4.68,16.1,77.7,1022.42,0,0,0,0,0.02697
2022/07/01 03:03:00.003,n,253,5.4,1.44,10.08,16.1,77.6,1022.42,0,0,0,0,0.025253
2022/07/01 03:04:00.000,n,265,4.32,3.6,4.68,16.1,77.6,1022.42,0,0,0,0,0.029602
2022/07/01 03:05:00.000,n,243,3.24,2.88,3.24,16.1,77.7,1022.42,0,0,0,0,0.026131
2022/07/01 03:06:00.010,n,316,3.24,2.52,3.96,16.1,77.8,1022.42,0,0,0,0,0.026131
2022/07/01 03:07:00.011,n,240,2.52,2.16,3.24,16.1,77.7,1022.42,0,0,0,0,0.025253
2022/07/01 03:08:00.005,n,289,1.08,0.72,1.44,16.1,77.8,1022.42,0,0,0,0,0.02697
2022/07/01 03:09:00.002,n,222,2.88,2.16,3.96,16.1,77.9,1022.52,0,0,0,0,0.026131
2022/07/01 03:10:00.000,n,233,1.08,0.36,2.52,16.1,78,1022.52,0,0,0,0,0.027847
2022/07/01 03:11:00.000,n,274,1.44,0.72,2.88,16.1,78.3,1022.52,0,0,0,0,0.028763
2022/07/01 03:12:00.000,n,239,2.52,2.52,2.88,16.200002,78.1,1022.52,0,0,0,0,0.027847
2022/07/01 03:13:00.000,n,279,6.48,5.4,7.2,16.200002,78,1022.52,0,0,0,0,0.026131
2022/07/01 03:14:00.004,n,217,3.24,2.88,3.6,16.200002,78,1022.52,0,0,0,0,0.026131
2022/07/01 03:15:00.001,n,254,3.24,2.52,4.32,16.1,78,1022.52,0,0,0,0,0.022621
2022/07/01 03:16:00.000,n,269,3.24,3.24,3.6,16.1,78,1022.42,0,0,0,0,0.02697
2022/07/01 03:17:00.012,n,306,1.8,0.72,2.52,16.1,78.4,1022.42,0,0,0,0,0.02697
2022/07/01 03:18:00.009,n,191,2.88,2.52,3.24,16.1,78.1,1022.32,0,0,0,0,0.027847
2022/07/01 03:19:00.000,n,260,2.52,2.52,2.52,16.1,78.2,1022.32,0,0,0,0,0.025253
2022/07/01 03:20:00.003,n,196,2.16,1.8,3.6,16.1,78.5,1022.32,0,0,0,0,0.025253
2022/07/01 03:21:00.000,n,284,2.16,1.08,2.52,16.1,78.6,1022.32,0,0,0,0,0.027847
2022/07/01 03:22:00.000,n,288,5.76,5.04,6.84,16.1,78.6,1022.32,0,0,0,0,0.022621
2022/07/01 03:23:00.000,n,273,0.72,0.36,1.08,16.1,78.4,1022.32,0,0,0,0,0.025253
2022/07/01 03:24:00.008,n,276,4.32,3.96,4.68,16.1,78.7,1022.42,0,0,0,0,0.022621
2022/07/01 03:25:00.006,n,212,2.52,2.16,2.88,16.1,78.6,1022.42,0,0,0,0,0.028763
2022/07/01 03:26:00.003,n,209,4.32,3.24,5.4,16.1,78.5,1022.42,0,0,0,0,0.025253
2022/07/01 03:27:00.000,n,319,1.44,0.36,2.16,16.1,78.8,1022.42,0,0,0,0,0.026131
2022/07/01 03:28:00.000,n,259,2.52,1.8,3.24,16.1,78.8,1022.42,0,0,0,0,0.02697
2022/07/01 03:29:00.000,n,253,3.24,2.88,3.96,16.200002,79.5,1022.32,0,0,0,0,0.025253
2022/07/01 03:30:00.000,n,239,3.24,3.24,3.24,16.200002,79.1,1022.32,0,0,0,0,0.02697
2022/07/01 03:31:00.007,n,309,4.32,2.88,5.4,16.200002,79,1022.32,0,0,0,0,0.023499
2022/07/01 03:32:00.004,n,349,2.16,1.44,2.88,16.200002,79.8,1022.32,0,0,0,0,0.025253
2022/07/01 03:33:00.002,n,277,5.76,5.04,6.12,16.200002,79.1,1022.32,0,0,0,0,0.02697
2022/07/01 03:34:00.000,n,272,3.6,3.24,4.68,16.200002,78.6,1022.32,0,0,0,0,0.02697
2022/07/01 03:35:00.000,n,166,1.08,0.36,2.16,16.1,78.7,1022.42,0,0,0,0,0.026131
2022/07/01 03:36:00.011,n,257,5.04,4.32,8.64,16.1,78.7,1022.42,0,0,0,0,0.025253
2022/07/01 03:37:00.000,n,266,3.6,3.24,3.96,16.1,78.8,1022.42,0,0,0,0,0.024414
2022/07/01 03:38:00.000,n,299,3.96,2.88,4.68,16.1,79.1,1022.52,0,0,0,0,0.024414
2022/07/01 03:39:00.002,n,235,5.04,3.24,9.36,16.1,78.9,1022.52,0,0,0,0,0.027847
2022/07/01 03:40:00.000,n,289,2.88,2.16,3.6,16,78.9,1022.52,0,0,0,0,0.027847
2022/07/01 03:41:00.000,n,265,2.52,1.8,2.52,16,79.2,1022.52,0,0,0,0,0.02697
2022/07/01 03:42:00.010,n,253,5.04,4.32,5.4,16.1,79.3,1022.52,0,0,0,0,0.024414
2022/07/01 03:43:00.007,n,274,3.96,3.6,3.96,16,79,1022.52,0,0,0,0,0.026131
2022/07/01 03:44:00.005,n,275,6.12,5.4,6.48,16,78.9,1022.62,0,0,0,0,0.024414
2022/07/01 03:45:00.002,n,299,4.32,3.96,4.68,16,79.3,1022.62,0,0,0,0,0.02697
2022/07/01 03:46:00.000,n,262,2.52,1.8,2.88,16,79.4,1022.62,0,0,0,0,0.026131
2022/07/01 03:47:00.000,n,309,1.44,1.08,1.8,16.1,79.9,1022.62,0,0,0,0,0.022621
2022/07/01 03:48:00.000,n,225,2.52,1.8,2.88,16.1,79.6,1022.62,0,0,0,0,0.024414
2022/07/01 03:49:00.000,n,222,2.52,2.16,3.24,16.1,79.3,1022.52,0,0,0,0,0.026131
2022/07/01 03:50:00.003,n,185,2.16,2.16,2.52,16.1,79.3,1022.52,0,0,0,0,0.029602
2022/07/01 03:51:00.001,n,84,1.8,1.44,2.16,16.1,79.3,1022.52,0,0,0,0,0.029602
2022/07/01 03:52:00.000,n,152,0.36,0,1.44,16.1,79.1,1022.42,0,0,0,0,0.029602
2022/07/01 03:53:00.012,n,157,0.36,0,0.36,16,79.2,1022.42,0,0,0,0,0.030479
2022/07/01 03:54:00.009,n,209,2.16,1.8,2.52,16.1,79.4,1022.42,0,0,0,0,0.030479
2022/07/01 03:55:00.000,n,335,0.72,0.36,1.08,16.1,79,1022.42,0,0,0,0,0.031357
2022/07/01 03:56:00.002,n,45,1.8,1.08,2.16,16,78.9,1022.42,0,0,0,0,0.030479
2022/07/01 03:57:00.000,n,169,2.16,1.44,6.12,16,78.9,1022.52,0,0,0,0,0.031357
2022/07/01 03:58:00.000,n,255,2.52,1.8,3.6,16,78.8,1022.52,0,0,0,0,0.027847
2022/07/01 03:59:00.000,n,249,1.08,0.72,1.44,16.1,79.2,1022.52,0,0,0,0,0.030479
2022/07/01 04:00:00.006,n,187,1.8,0.72,2.16,16.1,78.9,1022.52,0,0,0,0,0.031357
2022/07/01 04:01:00.004,n,5,1.08,0.36,2.16,16.1,78.8,1022.52,0,0,0,0,0.027847
2022/07/01 04:02:00.000,n,227,2.52,2.16,2.52,16.1,78.9,1022.52,0,0,0,0,0.027847
2022/07/01 04:03:00.014,n,41,1.08,0.36,1.44,16.1,79.1,1022.52,0,0,0,0,0.033073
2022/07/01 04:04:00.000,n,302,1.08,0.36,1.8,16.1,79,1022.52,0,0,0,0,0.031357
2022/07/01 04:05:00.000,n,266,3.24,2.88,3.96,16.1,78.6,1022.52,0,0,0,0,0.034828
2022/07/01 04:06:00.000,n,264,3.24,3.24,3.24,16.1,78.7,1022.52,0,0,0,0,0.029602
2022/07/01 04:07:00.002,n,244,3.96,3.6,4.32,16.1,78.4,1022.52,0,0,0,0,0.027008
2022/07/01 04:08:00.000,n,263,3.96,3.96,4.32,16,78.2,1022.52,0,0,0,0,0.032196
2022/07/01 04:09:00.000,n,246,3.24,3.24,3.24,16,78.2,1022.52,0,0,0,0,0.030479
2022/07/01 04:10:00.009,n,264,4.68,3.96,5.04,16,78.2,1022.52,0,0,0,0,0.028725
2022/07/01 04:11:00.006,n,248,2.88,2.52,3.24,16,78.2,1022.52,0,0,0,0,0.030479
2022/07/01 04:12:00.004,n,267,3.6,3.24,3.96,16,78.2,1022.52,0,0,0,0,0.027847
2022/07/01 04:13:00.001,n,256,3.24,2.88,3.24,16,78.2,1022.52,0,0,0,0,0.032196
2022/07/01 04:14:00.000,n,289,3.6,2.88,3.6,16,78.4,1022.62,0,0,0,0,0.032196
2022/07/01 04:15:00.000,n,234,3.6,2.88,4.32,16,78.2,1022.62,0,0,0,0,0.032196
2022/07/01 04:16:00.000,n,266,2.52,1.8,2.88,16,78.5,1022.62,0,0,0,0,0.032196
2022/07/01 04:17:00.003,n,259,5.4,3.96,8.64,16,78.3,1022.62,0,0,0,0,0.031357
2022/07/01 04:18:00.001,n,240,3.6,2.16,4.32,16,78,1022.62,0,0,0,0,0.031357
2022/07/01 04:19:00.000,n,253,4.32,3.96,4.68,16,78,1022.62,0,0,0,0,0.027847
2022/07/01 04:20:00.011,n,269,3.24,2.88,3.96,16,78,1022.62,0,0,0,0,0.032196
2022/07/01 04:21:00.007,n,247,3.96,3.24,4.68,16,78,1022.62,0,0,0,0,0.029602
2022/07/01 04:22:00.000,n,280,2.52,1.44,3.24,16,78.1,1022.52,0,0,0,0,0.027008
2022/07/01 04:23:00.000,n,273,2.16,0.36,2.88,16,78.1,1022.52,0,0,0,0,0.028725
2022/07/01 04:24:00.000,n,112,0.72,0.36,0.72,16,78,1022.42,0,0,0,0,0.029602
2022/07/01 04:25:00.000,n,254,0.36,0,0.72,16,78,1022.42,0,0,0,0,0.026131
2022/07/01 04:26:00.000,n,180,3.24,1.44,6.84,16,78,1022.42,0,0,0,0,0.027847
2022/07/01 04:27:00.006,n,204,1.08,0.36,1.8,16,77.9,1022.32,0,0,0,0,0.027008
2022/07/01 04:28:00.004,n,164,2.16,1.8,2.88,16,77.9,1022.32,0,0,0,0,0.027008
2022/07/01 04:29:00.000,n,184,4.68,2.16,9.36,16,77.8,1022.32,0,0,0,0,0.027847
2022/07/01 04:30:00.013,n,138,4.68,4.32,5.4,16,77.9,1022.32,0,0,0,0,0.027847
2022/07/01 04:31:00.000,n,153,3.96,3.6,3.96,16,77.7,1022.32,0,0,0,0,0.027008
2022/07/01 04:32:00.000,n,282,1.8,1.44,1.8,16,77.7,1022.32,0,0,0,0,0.026131
2022/07/01 04:33:00.005,n,312,1.08,0.36,1.8,16,77.7,1022.32,0,0,0,0,0.027008
2022/07/01 04:34:00.001,n,253,2.16,1.8,2.16,16,77.8,1022.42,0,0,0,0,0.022621
2022/07/01 04:35:00.000,n,218,2.52,2.16,2.88,16,77.8,1022.42,0,0,0,0,0.026131
2022/07/01 04:36:00.000,n,231,2.52,2.16,3.24,16,78,1022.42,0,0,0,0,0.025253
2022/07/01 04:37:00.009,n,191,0.72,0.72,1.08,16,77.9,1022.42,0,0,0,0,0.026131
2022/07/01 04:38:00.007,n,287,2.16,1.44,2.88,16,77.9,1022.42,0,0,0,0,0.025253
2022/07/01 04:39:00.003,n,217,1.08,0.72,1.8,16,78,1022.42,0,0,0,0,0.026131
2022/07/01 04:40:00.000,n,225,1.08,0.72,1.08,16,77.9,1022.42,0,0,0,0,0.026131
2022/07/01 04:41:00.000,n,203,0,0,0.36,16,77.9,1022.42,0,0,0,0,0.025253
2022/07/01 04:42:00.000,n,161,1.44,1.44,1.44,16,77.9,1022.42,0,0,0,0,0.023499
2022/07/01 04:43:00.006,n,275,0.72,0.36,0.72,16,77.9,1022.42,0,0,0,0,0.028725
2022/07/01 04:44:00.003,n,240,0.36,0.36,0.36,16,77.9,1022.42,0,0,0,0,0.026131
2022/07/01 04:45:00.000,n,174,0.72,0.72,0.72,16,77.9,1022.32,0,0,0,0,0.026131
2022/07/01 04:46:00.000,n,139,1.44,1.44,1.8,16,77.8,1022.32,0,0,0,0,0.022621
2022/07/01 04:47:00.011,n,199,0.72,0,1.8,16,77.6,1022.32,0,0,0,0,0.027008
2022/07/01 04:48:00.008,n,164,0.72,0.72,0.72,16,77.6,1022.32,0,0,0,0,0.027008
2022/07/01 04:49:00.000,n,163,4.32,3.24,8.28,16,77.4,1022.42,0,0,0,0,0.027008
2022/07/01 04:50:00.002,n,183,2.88,2.52,3.24,16,77.2,1022.42,0,0,0,0,0.028725
2022/07/01 04:51:00.000,n,282,2.88,2.16,3.24,16,77.7,1022.42,0,0,0,0,0.027847
2022/07/01 04:52:00.000,n,272,3.6,2.52,4.32,16,77.7,1022.42,0,0,0,0,0.027847